Погода в Вентспилсе

Латвия     57°23′47″N   21°34′01″E
темп.,
°C
ветер,
м/с
пор.,
м/с
влажн.,
%
обл.,
%
осадки,
мм/ч
давл.,
гПа
погр.,
м
31 июля, сб
сб3100:00+19з1011755 2.3 9971058
03:00+20з89735 2.6 9981017
06:00+20з810756 0.2 998877
09:00+19з10118236 1.7 1000880
12:00+19зюз101177100 0.3 10021073
15:00+20зюз10117326 0.3 10021211
18:00+20юз810735 0.0 1002849
21:00+20ююз710800 1.5 1001616
1 августа, вс
вс100:00+19юз911765 1.6 1001921
03:00+19юз101374100 3.0 10001283
06:00+18ююз121683100 2.8 9981249
09:00+19з13157610 5.8 9991184
12:00+19з121275100 0.2 10021178
15:00+19зюз11127269 0.3 10041286
18:00+19зюз91273100 0.1 10041354
21:00+19зюз101166100 0.2 10041444
2 августа, пн
пн200:00+19зюз8867100 0.0 10041128
03:00+19юз676698 0.1 10031153
06:00+19юз786682 0.1 10031186
09:00+19зюз786270 0.2 10031275
12:00+18зюз666611 0.1 10031024
15:00+19зюз89640 0.4 10031394
18:00+19зюз910675 0.1 10031252
21:00+18з9107213 0.9 10031038
3 августа, вт
вт300:00+18зсз77680 0.3 10031157
03:00+18ссз667015 0.4 10041031
06:00+18сз776778 0.5 10061218
09:00+18ссз886399 0.6 10071566
12:00+18сз67544 0.1 10091498
15:00+18зсз45500 0.1 10101603
18:00+19з56535 0.0 10111610
21:00+19з56595 0.0 10121257
4 августа, ср
ср400:00+19з556198 0.4 10121036
03:00+17ю346695 1.6 1012273
06:00+16ююв567595 1.1 1013248
09:00+17ююв566349 1.3 1013338
12:00+20ююв4652100 0.0 10131198
15:00+21с2252100 0.0 1012238
18:00+20ссв5563100 0.1 1012566
21:00+19всв3465100 1.0 1012617